Location: Blanot
(47.1713°N, 4.2340°E)
Time: 04:02:33
(UTC+00:00)

ARIANE 5 R/B - Pass Details

Date: 14 July 2020
Orbit: 749 x 794 km, 98.6° (Epoch: 06 August)

Event Time Altitude Azimuth Distance (km) Brightness Sun altitude
Rises 02:50:34 0° 13° (NNE) 3,235 6.9 -10.0°
Reaches altitude 10° 02:52:52 10° 12° (NNE) 2,311 6.0 -9.7°
Maximum altitude 02:57:57 78° 287° (WNW) 794 2.5 -9.1°
Drops below altitude 10° 03:03:04 10° 202° (SSW) 2,324 4.4 -8.5°
Enters shadow 03:03:30 - 201° (SSW) 2,492 4.6 -8.5°
